Regional Weather Roundup
Issued by NWS

Home | Current Version | Previous Version | Text Only | Print | Product List | Glossary On
Versions: 1 2 3 4 5 6 7 8 9 10 11 12 13 14 15 16 17 18 19 20 21 22 23 24 25 26 27 28 29 30 31 32 33 34 35 36 37 38 39 40 41 42 43 44 45 46 47 48 49 50
000
ASUS43 KTOP 301759
RWRKS

WEATHER ROUNDUP FOR KANSAS
NATIONAL WEATHER SERVICE GOODLAND KS
100 PM CDT SUN APR 30 2017

NOTE:  "FAIR" INDICATES FEW OR NO CLOUDS BELOW 12,000 FEET WITH NO
SIGNIFICANT WEATHER AND/OR OBSTRUCTIONS TO VISIBILITY.

KSZ001>006-013>018-027>032-041>047-301900-
NORTHWEST KANSAS

CITY           SKY/WX    TMP DP  RH WIND       PRES   REMARKS
GOODLAND       SNOW      31  31 100 N31G40    29.79F VSB 1/4 WCI  16
6HR MIN TEMP:  31; 6HR MAX TEMP:  36; 6HR PCP:  0.02;

HAYS           LGT RAIN  38  37  97 N30G36    29.53F FOG     WCI  26
HILL CITY      LGT SNOW  35  34  96 N24G33    29.65S FOG     WCI  23
6HR MIN TEMP:  33; 6HR MAX TEMP:  35; 6HR PCP:  0.51;

RUSSELL        CLOUDY    40  37  89 N26G36    29.51F WCI  29
6HR MIN TEMP:  37; 6HR MAX TEMP:  40; 6HR PCP:  0.17;

$$

KSZ061>065-074>080-084>089-301900-
SOUTHWEST KANSAS

CITY           SKY/WX    TMP DP  RH WIND       PRES   REMARKS
DODGE CITY     SNOW      34  32  92 N28G46    29.54S VSB 1/2 WCI  21
6HR MIN TEMP:  32; 6HR MAX TEMP:  34; 6HR PCP:  0.08;

ELKHART          N/A    N/A N/A N/A MISG        N/A
GREAT BEND     LGT RAIN  40  39  97 N24G32    29.48F WCI  29
LIBERAL        LGT SNOW  33  31  92 NW44G54   29.66R FOG     WCI  17
$$

KSZ066>073-081>083-090>101-301900-
SOUTHEAST KANSAS

CITY           SKY/WX    TMP DP  RH WIND       PRES   REMARKS
CHANUTE        PTSUNNY   54  45  71 MISG      29.49F
6HR MIN TEMP:  50; 6HR MAX TEMP:  58; 6HR PCP:  0.01;

COFFEYVILLE    CLOUDY    51  40  65 S24G39    29.52F
6HR MIN TEMP:  51; 6HR MAX TEMP:  55; 6HR PCP: TRACE;

HUTCHINSON     LGT RAIN  47  44  90 SE12      29.43S
6HR MIN TEMP:  40; 6HR MAX TEMP:  50; 6HR PCP:  0.05;

MEDICINE LODGE   N/A    N/A N/A N/A N7        29.40F
PARSONS        CLOUDY    53  42  66 S17G28    29.52F
6HR MIN TEMP:  51; 6HR MAX TEMP:  55; 6HR PCP:  0.01;

WICHITA INTL   CLOUDY    45  41  86 S18       29.45R
6HR MIN TEMP:  43; 6HR MAX TEMP:  49;

WICHITA JABRA  CLOUDY    47  41  80 S16G23    29.44F
6HR MIN TEMP:  42; 6HR MAX TEMP:  48; 6HR PCP: TRACE;

WICHITA MCCONL CLOUDY    46  39  76 SW21G26   29.45S
WINFIELD       CLOUDY    48  39  71 SW18G28   29.48S
6HR MIN TEMP:  46; 6HR MAX TEMP:  51; 6HR PCP:  0.01;

$$

KSZ007>012-019>026-033>040-048>060-102>105-301900-
NORTHEAST KANSAS

CITY           SKY/WX    TMP DP  RH WIND       PRES   REMARKS
CONCORDIA      LGT RAIN  42  41  96 N21       29.51F FOG
6HR MIN TEMP:  38; 6HR MAX TEMP:  42; 6HR PCP:  0.26;

EMPORIA        LGT RAIN  50  50 100 S16       29.46F
6HR MIN TEMP:  42; 6HR MAX TEMP:  51; 6HR PCP:  0.04;

LAWRENCE       LGT RAIN  53  51  93 S9        29.50S
6HR MIN TEMP:  43; 6HR MAX TEMP:  54; 6HR PCP:  0.42;

MANHATTAN      CLOUDY    50  50 100 E7        29.47F FOG
6HR MIN TEMP:  41; 6HR MAX TEMP:  50; 6HR PCP:  0.10;

OLATHE IND     CLOUDY    53  50  89 S14       29.50F
6HR MIN TEMP:  44; 6HR MAX TEMP:  54; 6HR PCP:  0.29;

OLATHE EXE     LGT RAIN  51  51 100 SW13      29.50S
6HR MIN TEMP:  44; 6HR MAX TEMP:  53; 6HR PCP:  0.21;

SALINA         LGT RAIN  47  45  93 N12       29.47F FOG
6HR MIN TEMP:  42; 6HR MAX TEMP:  47; 6HR PCP:  0.06;

TOPEKA BILLARD CLOUDY    55  53  93 NE3       29.48F
6HR MIN TEMP:  43; 6HR MAX TEMP:  55; 6HR PCP:  0.16;

TOPEKA FORBES  PTSUNNY   58  50  75 S14G23    29.47F
6HR MIN TEMP:  44; 6HR MAX TEMP:  59; 6HR PCP:  0.09;

$$



USA.gov is the U.S. government's official web portal to all federal, state and local government web resources and services.